Zurück zum Katalog

CICERO-3

AktivKommunikationSSO
NORAD 42849·PAYLOAD·🇳🇴 Norway
Dieser Satellitenname wurde noch nicht durch offizielle Quellen bestätigt.

Gestartet Jul 14, 2017 von Baikonur Cosmodrome

Loading…

Nächste Überflüge (nächste 24 Stunden)

TLE

AktuellSource: Space-Track

Epoche: Sep 14, 2026, 10:14 UTC

1 42849U 17042AA  26257.42697749  .00002417  00000-0  15979-3 0  9999
2 42849  97.4346  60.2158 0011446 150.2903 209.8978 15.08254743500669

Verfolge CICERO-3 in Echtzeit mit AllMySat

Download on the App Store